Simultaneous Nadir Overpasses (SNOs) Predictions

Prediction of SNOs between LANDSAT-8 and TERRA Satellite Orbit:

Table of predicted SNOs for the next 14.0 days since TLE Epoch: 1/5/2025
Index Date (LANDSAT-8) Time (LANDSAT-8) Lat,Lon (LANDSAT-8) SZA (LANDSAT-8 ) Date (TERRA) Time (TERRA) Lat,Lon (TERRA) SZA (TERRA ) Distance(km) Time Diff (sec)
1 01/09/2025 17:05:12 81.83, -10.71 108.18 01/09/2025 17:06:24 81.83, -10.75 108.22 0.59 72
2 01/09/2025 17:54:39 -81.83, 156.75 71.85 01/09/2025 17:55:44 -81.83, 156.93 71.79 2.74 65
3 01/09/2025 18:44:05 81.83, -35.40 108.18 01/09/2025 18:45:04 81.83, -35.50 108.20 1.74 59
4 01/09/2025 19:33:31 -81.83, 132.49 71.80 01/09/2025 19:34:23 -81.82, 132.59 71.77 1.70 52
5 01/09/2025 20:22:58 81.83, -60.08 108.17 01/09/2025 20:23:44 81.84, -60.26 108.18 2.90 46
6 01/09/2025 21:12:24 -81.83, 107.81 71.81 01/09/2025 21:13:03 -81.82, 107.84 71.79 0.62 39
7 01/09/2025 22:01:51 81.83, -84.77 108.16 01/09/2025 22:02:23 81.83, -84.60 108.20 2.79 32
8 01/09/2025 22:51:17 -81.83, 83.12 71.82 01/09/2025 22:51:43 -81.83, 83.08 71.81 0.63 26
9 01/09/2025 23:40:44 81.83,-109.46 108.16 01/09/2025 23:41:03 81.83,-109.35 108.18 1.68 19
10 01/10/2025 00:30:10 -81.83, 58.43 71.82 01/10/2025 00:30:23 -81.83, 58.33 71.83 1.72 13
11 01/10/2025 01:19:37 81.83,-134.15 108.15 01/10/2025 01:19:43 81.83,-134.11 108.16 0.71 6
12 01/10/2025 02:09:03 -81.83, 33.75 71.83 01/10/2025 02:09:03 -81.83, 33.57 71.85 2.83 0
13 01/10/2025 02:58:29 81.82,-158.41 108.20 01/10/2025 02:58:22 81.82,-158.45 108.18 0.76 7
14 01/10/2025 03:47:56 -81.83, 9.06 71.84 01/10/2025 03:47:42 -81.82, 9.23 71.82 2.81 14
15 01/10/2025 04:37:22 81.82, 176.90 108.19 01/10/2025 04:37:02 81.82, 176.79 108.16 1.78 20
16 01/10/2025 05:26:49 -81.82, -15.63 71.84 01/10/2025 05:26:22 -81.82, -15.52 71.85 1.69 27
17 01/10/2025 06:16:15 81.82, 152.21 108.18 01/10/2025 06:15:42 81.83, 152.03 108.14 2.92 33
18 01/10/2025 07:05:42 -81.82, -40.32 71.85 01/10/2025 07:05:02 -81.83, -40.28 71.87 0.62 40
19 01/10/2025 07:55:08 81.82, 127.53 108.17 01/10/2025 07:54:21 81.82, 127.69 108.17 2.75 47
20 01/10/2025 08:44:35 -81.82, -65.01 71.86 01/10/2025 08:43:42 -81.83, -65.04 71.89 0.67 53
21 01/10/2025 09:34:01 81.82, 102.84 108.17 01/10/2025 09:33:01 81.82, 102.93 108.15 1.58 60
22 01/10/2025 10:23:27 -81.82, -89.27 71.81 01/10/2025 10:22:21 -81.82, -89.38 71.86 1.71 66



Historial Predications of SNOs between LANDSAT-8 and TERRA
